Location: Aranbee
(34.0885°N, 118.2342°W)
Time: 12:28:55
(UTC+00:00)

Tiros 1 - Pass Details

Date: 29 November 2020
Orbit: 630 x 663 km, 48.4° (Epoch: 21 January)

Event Time Altitude Azimuth Distance (km) Brightness Sun altitude
Rises 21:33:36 0° 216° (SW) 2,976 11.8 28.2°
Reaches altitude 10° 21:35:59 10° 211° (SSW) 2,069 11.5 28.0°
Maximum altitude 21:40:36 50° 136° (SE) 843 8.3 27.5°
Drops below altitude 10° 21:45:14 10° 62° (ENE) 2,077 9.4 27.0°
Sets 21:47:38 0° 57° (ENE) 2,989 10.1 26.7°
